Overview Statistics Trail Chart Weather Telemetry Raw packets
 

This is the latest recevied weather packets stored in our database for station/object NK7E-2. If no packets are shown the sender has not sent any weather packets the latest 10 day(s).

<< 1 2 3 4 5 6 7 >>
Time Temp. Humidity Pressure Rain* Wind** Luminosity Snow
1788424216 26.11° C 57% 1028 hPa 0 mm - - -
1788423616 26.11° C 58% 1028.1 hPa 0 mm - - -
1788423016 25.56° C 59% 1028.1 hPa 0 mm - - -
1788422416 25.56° C 59% 1027.8 hPa 0 mm - - -
1788421816 25.56° C 59% 1028 hPa 0 mm - - -
1788421216 26.11° C 58% 1027.9 hPa 0 mm - - -
1788420616 26.11° C 57% 1028 hPa 0 mm - - -
1788420016 26.11° C 56% 1027.9 hPa 0 mm - - -
1788419416 26.11° C 56% 1027.9 hPa 0 mm - - -
1788418816 26.11° C 56% 1027.6 hPa 0 mm - - -
1788418217 26.67° C 54% 1027.5 hPa 0 mm - - -
1788417617 27.22° C 53% 1027.5 hPa 0 mm - - -
1788417017 27.22° C 52% 1027.6 hPa 0 mm - - -
1788416417 27.22° C 52% 1027.7 hPa 0 mm - - -
1788415816 27.78° C 52% 1027.5 hPa 0 mm - - -
1788415217 27.78° C 50% 1027.7 hPa 0 mm - - -
1788414616 27.78° C 50% 1027.8 hPa 0 mm - - -
1788414016 27.78° C 51% 1027.6 hPa 0 mm - - -
1788413417 27.78° C 53% 1027.8 hPa 0 mm - - -
1788412816 27.78° C 52% 1027.9 hPa 0 mm - - -
1788412216 27.78° C 52% 1028 hPa 0 mm - - -
1788411616 27.22° C 53% 1027.8 hPa 0 mm - - -
1788411016 27.22° C 53% 1027.8 hPa 0 mm - - -
1788410416 27.22° C 53% 1027.8 hPa 0 mm - - -
1788409816 27.22° C 54% 1027.5 hPa 0 mm - - -

* Rain latest hour (hover to see other rain measurements)
** Current wind speed in m/s (hover to see current wind gust speed)